#timestamp,LO_Frequency,Hit,StdDev 
1570338015.3,286047000.0,N
1570338035.1,286047002.4,N
1570338055.8,286046999.8,N
1570338075.7,286047002.7,N
1570338095.5,286047001.9,N
1570338115.4,286047002.0,N
1570338135.2,286047002.6,N
1570338155.0,286047000.4,N
1570338155.9,286047000.4,N
1570338175.8,286046999.8,N
1570338195.6,286047002.3,N
1570338215.5,286047000.4,N
1570338235.3,286046998.2,N
1570338255.1,286047001.0,N
1570338275.9,286046998.1,N
1570338295.7,286046998.7,N
1570338315.5,286047000.8,N
1570338335.4,286047001.2,N
1570338355.2,286046998.5,N
1570338375.1,286046998.4,N
1570338376.0,286046998.4,N
1570338395.8,286046999.1,N
1570338415.6,286046998.8,N
1570338435.5,286046999.5,N
1570338455.3,286046998.6,N
1570338475.2,286046998.6,N
1570338495.9,286046999.5,N
1570338515.7,286046998.8,N
1570338535.6,286046998.4,N
1570338555.4,286046996.7,N
1570338575.3,286046997.4,N
1570338595.1,286046997.1,N
1570338596.0,286046997.1,N
1570338615.8,286046998.0,N
1570338635.7,286046997.5,N
1570338655.5,286046995.2,Y
1570338675.4,286046995.4,P
1570338695.2,286046996.7,N
1570338715.0,286046996.8,N
1570338715.9,286046996.8,N
1570338735.8,286046998.9,N
1570338755.6,286046999.2,N
1570338775.4,286046998.8,N
1570338795.3,286046999.4,N
1570338815.1,286046998.2,N
1570338835.9,286046998.2,N
1570338855.7,286046996.5,N
1570338875.5,286046997.0,N
1570338895.4,286046999.4,N
1570338915.2,286046996.5,N
1570338935.1,286046997.2,N
1570338936.0,286046997.2,N
1570338955.8,286046997.7,N
1570338975.6,286046996.1,Y
1570338995.5,286046996.7,P
1570339015.3,286046999.3,N
1570339035.2,286046999.4,N
1570339055.9,286047000.7,N
1570339075.7,286046998.2,N
1570339095.6,286046998.8,N
1570339115.4,286047001.1,N
1570339135.2,286047000.6,N
1570339155.1,286047001.0,N
1570339156.0,286047001.0,N
1570339175.8,286047002.7,N
1570339195.7,286047002.2,N
1570339215.5,286047002.3,N
1570339235.3,286047000.2,N
1570339255.2,286047000.9,N
1570339275.0,286046998.5,N
1570339275.9,286046998.5,N
1570339295.8,286046999.2,N
1570339315.6,286046999.6,N
1570339335.4,286046998.8,N
1570339355.3,286046998.9,N
1570339375.1,286046998.3,N
1570339395.9,286046998.4,N
1570339415.7,286046998.2,N
1570339435.5,286047001.0,N
1570339455.4,286047001.0,N
1570339475.2,286047000.8,N
1570339495.1,286046999.3,N
1570339496.0,286046999.3,N
1570339515.8,286047001.2,N
1570339535.6,286047000.4,N
1570339555.5,286046999.9,N
1570339575.3,286046999.0,N
1570339595.2,286046998.6,N
1570339615.0,286046999.9,N
1570339615.9,286046999.9,N
1570339635.8,286046999.9,N
1570339655.6,286047002.1,N
1570339675.4,286047000.2,N
1570339695.3,286047002.4,N
1570339715.1,286047000.3,N
1570339735.9,286047001.1,N
1570339755.7,286046998.1,N
1570339775.5,286046998.6,N
1570339795.4,286046998.2,N
1570339815.2,286047000.3,N
1570339835.0,286047002.2,N
1570339836.0,286047002.2,N
1570339855.8,286047001.7,N
1570339875.6,286047001.6,N
1570339895.5,286047001.3,N
1570339915.3,286047002.6,N
1570339935.1,286047000.5,N
1570339955.9,286046999.9,N
1570339975.7,286047002.7,N
1570339995.6,286047002.3,N
1570340015.5,286047002.1,N
1570340035.3,286046999.7,N
1570340055.1,286047002.4,N
1570340075.9,286046999.7,N
1570340095.7,286046999.9,N
1570340115.6,286047000.5,N
1570340135.4,286046998.4,N
1570340155.2,286046998.6,N
1570340175.1,286047001.1,N
1570340176.0,286047001.1,N
1570340195.8,286047000.7,N
1570340215.7,286047000.0,N
1570340235.5,286047000.9,N
1570340255.3,286047000.7,N
1570340275.2,286046999.9,N
1570340295.0,286047002.6,N
1570340295.9,286047002.6,N
1570340315.8,286047001.6,N
1570340335.6,286047001.8,N
1570340355.4,286047000.5,N
1570340375.3,286046998.2,N
1570340395.1,286046998.9,N
1570340415.8,286046998.1,N
1570340435.7,286046998.1,N
1570340455.5,286046999.8,N
1570340475.4,286047002.3,N
1570340495.2,286047002.3,N
1570340515.0,286047001.6,N
1570340515.9,286047001.6,N
1570340535.8,286047001.8,N
1570340555.6,286047002.4,N
1570340575.4,286047002.5,N
1570340595.3,286047002.5,N
1570340615.1,286047002.3,N
1570340635.9,286047002.2,N
1570340655.7,286047002.6,N
1570340675.5,286047000.2,N
1570340695.4,286046999.9,N
1570340715.2,286046998.1,N
1570340735.0,286047000.8,N
1570340736.0,286047000.8,N
1570340755.8,286047000.0,N
1570340775.6,286047001.0,N
1570340795.5,286047000.1,N
1570340815.3,286047002.3,N
1570340835.1,286047002.4,N
1570340855.9,286047000.7,N
1570340875.7,286047001.0,N
1570340895.6,286046998.4,N
1570340915.4,286047000.8,N
1570340935.2,286046998.1,N
1570340955.1,286047000.6,N
1570340956.0,286047000.6,N
1570340975.8,286046999.9,N
1570340995.7,286047000.0,N
1570341015.5,286047001.9,N
1570341035.3,286047004.4,Y
1570341055.2,286047002.2,P
1570341075.7,286047001.8,N
1570341095.5,286047002.5,P
1570341115.3,286047001.6,N
1570341135.2,286047001.7,Y
1570341155.0,286046999.8,P
1570341155.9,286046999.8,N
1570341175.7,286047000.8,N
1570341195.6,286046998.3,N
1570341215.4,286046997.0,N
1570341235.3,286046997.4,N
1570341255.1,286046998.7,N
1570341256.0,286046998.7,N
1570341275.8,286046998.2,N
1570341295.7,286047000.8,N
1570341315.5,286047000.5,N
1570341335.4,286047000.8,N
1570341355.2,286047001.1,N
1570341375.0,286047001.1,N
1570341375.9,286047001.1,N
1570341395.8,286047001.0,N
1570341415.6,286046998.7,N
1570341435.4,286046999.4,N
1570341455.3,286046998.9,N
1570341475.1,286047001.2,N
1570341495.9,286046998.6,N
1570341515.7,286046998.5,N
1570341535.5,286046998.2,N
1570341555.4,286047000.9,N
1570341575.2,286047000.8,N
1570341595.1,286047000.9,N
1570341596.0,286047000.9,N
